Simultaneous Nadir Overpasses (SNOs) Predictions

Prediction of SNOs between METOP-A and NOAA-19 Satellite Orbit:

Table of predicted SNOs for the next 14.0 days since TLE Epoch: 8/17/2018
Index Date (METOP-A) Time (METOP-A) Lat,Lon (METOP-A) SZA (METOP-A ) Date (NOAA-19) Time (NOAA-19) Lat,Lon (NOAA-19) SZA (NOAA-19 ) Distance(km) Time Diff (sec)
1 08/26/2018 01:07:32 -78.83, -7.37 111.57 08/26/2018 01:06:17 -78.85, -7.70 111.57 7.48 75
2 08/26/2018 01:58:12 78.82, 159.89 68.43 08/26/2018 01:57:21 78.82, 159.74 68.42 3.10 51
3 08/26/2018 02:48:54 -78.81, -32.84 111.57 08/26/2018 02:48:17 -78.82, -32.93 111.57 2.00 37
4 08/26/2018 03:39:34 78.80, 134.41 68.43 08/26/2018 03:39:21 78.79, 134.51 68.42 2.57 13
5 08/26/2018 04:30:16 -78.79, -58.31 111.57 08/26/2018 04:30:18 -78.81, -58.41 111.55 3.15 2
6 08/26/2018 05:20:56 78.78, 108.94 68.43 08/26/2018 05:21:22 78.78, 109.03 68.44 2.01 26
7 08/26/2018 06:11:38 -78.77, -83.79 111.57 08/26/2018 06:12:18 -78.78, -83.65 111.55 3.12 40
8 08/26/2018 07:02:18 78.76, 83.46 68.43 08/26/2018 07:03:23 78.78, 83.54 68.47 3.23 65




NCC Satellite Simultaneous Nadir Overpasses (SNOs) Prediction Service
